sat.trackr.live / text

‹ back to catalog

SKYSAT-C9

NORAD 42989 · 2017-068C

PAYLOAD ACTIVE UNKNOWN

§ Identity

Operator
Country
US
Launch date
2017-10-31
Launch site
AFWTR
Launch vehicle
Mass (kg)
RCS (m²)

Purposes: earth_obs

External: N2YO · Heavens-Above · Gunter

§ Orbital elements

Epoch: 2026-09-20T03:20:43.100736Z

Period
93.29 min
Inclination
97.4550°
Eccentricity
0.0008566
Mean motion
15.43649484 rev/d
Perigee alt
429.5 km
Apogee alt
441.2 km
Semi-major
6,813.5 km
B*
2.3230e-4
RAAN
42.9784°
Arg perigee
146.4310°
Mean anomaly
213.7482°
Rev number
49,739

§ Raw data

SKYSAT-C91 42989U 17068C   26263.13938774  .00010388  00000+0  23230-3 0  99972 42989  97.4550  42.9784 0008566 146.4310 213.7482 15.43649484497399

JSON: /api/v1/satellites/42989 · /tle

For live sub-satellite position, see the globe view (requires WebGL).

§ Visibility from observer

Set your observer location to see the next 7 days of passes ≥ 10°. The values pass through the URL so the page stays shareable.

No JS? Fill the form by hand. The geolocation button needs JavaScript.